Погода в Картахене

Колумбия     10°23′36″N   75°28′56″W
темп.,
°C
ветер,
м/с
пор.,
м/с
влажн.,
%
обл.,
%
осадки,
мм/ч
давл.,
гПа
погр.,
м
16 мая, вс
вс1601:00+27ссв101286100 0.0 1008657
04:00+27св7885100 0.0 1008407
07:00+26в5686100 0.0 1009335
10:00+30вюв2469100 0.0 1011241
13:00+29ссз6475100 0.0 1009580
16:00+28ссв667736 0.1 1008521
19:00+27ссв898441 0.1 1010482
22:00+27ссв8108697 0.0 1011651
17 мая, пн
пн1701:00+27ссв8986100 0.1 1009700
04:00+27ссв7786100 0.3 1008433
07:00+27вюв5684100 0.9 1010276
10:00+30юв357177 0.0 1011289
13:00+29зюз5373100 3.0 1009507
16:00+28с4482100 3.8 1008402
19:00+27ссв5683100 3.9 1010337
22:00+27св5786100 0.8 1011404
18 мая, вт
вт1801:00+27ссв3385100 8.0 1010109
04:00+27ююв2382100 2.6 1010177
07:00+26ююв4586100 3.1 1011249
10:00+28ю6779100 4.1 1013596
13:00+28юз7779100 7.2 1011680
16:00+27юз4480100 0.0 1009489
19:00+27з2381100 0.0 1011308
22:00+27с118290 1.4 101260
19 мая, ср
ср1901:00+26ссз008148 3.3 101137
04:00+26ююз2281100 4.8 101097
07:00+26юв338290 7.0 1012197
10:00+28ююз237390 1.6 1013437
13:00+28зюз4376100 2.6 1010439
16:00+28зсз2274100 0.1 1008415
19:00+28ссз337790 0.1 1009307
22:00+27ссв4580100 0.0 1010412
20 мая, чт
чт2001:00+27ссв458391 0.0 1009411
04:00+27ссв348472 0.0 1008397
07:00+27с238518 0.6 1010261
10:00+28з2282100 0.1 1010417
13:00+28з4382100 0.1 1008381
16:00+28сз338118 0.0 1006433
19:00+27с3382100 0.0 1008308
22:00+27ссв468639 0.0 1009380